Skip Page Navigation
NASA JPL Caltech
NASA Logo - Jet Propulsion Laboratory + View the NASA Portal
+ Center for Near-Earth Object Studies
JPL Home Earth Solar System Stars & Galaxies Technology
JPL Solar System Dynamics
BODIES ORBITS EPHEMERIDES TOOLS PHYSICAL DATA DISCOVERY FAQ SITE MAP
IMPORTANT: The SSD Announcement email list is now available. Major changes are coming in the near future, including possible hostname and/or URL changes. To be notified of such changes, subscribe to this email list.

Please visit this page for more details.


JPL Small-Body Database Browser
Search: [ help ]  
441058 (2007 PH25)
Classification: Apollo [NEO]          SPK-ID: 2441058
Ephemeris | Orbit Diagram | Orbital Elements | Mission Design | Physical Parameters | Discovery Circumstances | Close-Approach Data ]

[ show orbit diagram ]
Orbital Elements at Epoch 2458600.5 (2019-Apr-27.0) TDB
Reference: JPL 42 (heliocentric ecliptic J2000)
 Element Value Uncertainty (1-sigma)   Units 
e .8127802974851754 1.4665e-07  
a 2.540869950705595 3.2068e-08 au
q .4757009162999584 3.7392e-07 au
i 53.23788743469281 3.2519e-05 deg
node 150.3070523377663 1.522e-05 deg
peri 331.8076068496117 2.5357e-05 deg
M 297.9518964375907 2.582e-05 deg
tp 2458855.475289800825
(2020-Jan-06.97528980)
0.00011026 TDB
period 1479.353905409396
4.05
2.8006e-05
7.668e-08
d
yr
n .24334947755478 4.6069e-09 deg/d
Q 4.606038985111231 5.8132e-08 au
  Orbit Determination Parameters
   # obs. used (total)      199  
   data-arc span      4405 days (12.06 yr)  
   first obs. used      2007-08-12  
   last obs. used      2019-09-03  
   planetary ephem.      DE431  
   SB-pert. ephem.      SB431-N16  
   condition code      0  
   norm. resid. RMS      .47842  
   source      ORB  
   producer      Otto Matic  
   solution date      2019-Sep-19 06:10:39  

Additional Information
 Earth MOID = .473486 au 
 Jupiter MOID = 1.36112 au 
 T_jup = 2.535 
[ show covariance matrix ]

Ephemeris | Orbit Diagram | Orbital Elements | Mission Design | Physical Parameters | Discovery Circumstances | Close-Approach Data ]

Physical Parameter Table
Parameter Symbol Value Units Sigma Reference Notes
absolute magnitude H 16.5   n/a MPO392183  

441058 (2007 PH25)          Discovered 2007-Aug-12 by Siding Spring Survey at Siding Spring
Reference: Last Updated: 2015-09-02

[ hide close-approach data ]
Close-Approach Data   ...sorted by Date/Time (TDB)
Date/Time (TDB) Time Uncertainty
(days_HH:MM)
Body Nominal Distance (au) Minimum Distance (au) Maximum Distance (au) V-relative (km/s) V-infinity (km/s) JD (TDB) Time Uncertainty (minutes) Semi-major axis (km) Semi-minor axis (km) range-LOV angle (deg) N-sigma BP Orbit Ref. Reference Modified
1902-Aug-15 13:34 00:05 Jupiter 1.71286683362432 1.71284543619892 1.71288823143967 14.5862486130909 14.5523069333473 2415977.065103275 5.32103230788577 1683.92759150897 146.600093808518 -51.0894286813262 913414.262102651 T 42 CATAB v2.0f-lin.ifort 2019-Sep-19 06:10:59 2019-Sep-19 06:11
1914-Aug-11 21:31 00:03 Jupiter 1.5021218198437 1.50211245961355 1.50213118033112 13.3775904950179 13.3353724874274 2420356.396315952 3.26756772321278 1141.59923876011 155.416146877813 -67.2616370176693 913123.762158043 T 42 CATAB v2.0f-lin.ifort 2019-Sep-19 06:10:59 2019-Sep-19 06:11
1926-Jul-26 03:48 00:02 Jupiter 1.4210421317571 1.42103877379158 1.42104548973966 12.5460981642312 12.4984984928303 2424722.658156928 1.78490261941033 725.281190416141 156.407846164479 -85.4498170306066 932940.556158414 T 42 CATAB v2.0f-lin.ifort 2019-Sep-19 06:10:59 2019-Sep-19 06:11
1938-Jun-29 03:58 < 00:01 Jupiter 1.41188742318494 1.41188342956953 1.41189141682467 11.9562205957449 11.9059382942388 2429078.665508053 0.947438203502791 463.487870992897 141.529686058612 71.3484747647882 971789.212873859 T 42 CATAB v2.0f-lin.ifort 2019-Sep-19 06:10:59 2019-Sep-19 06:11
1950-May-26 14:08 < 00:01 Jupiter 1.4518175933759 1.45181240357064 1.45182278319213 11.5182937402187 11.4675300924687 2433428.088996643 0.787096462655414 336.300213673514 96.5634879209729 41.5867467568327 1041027.94581129 T 42 CATAB v2.0f-lin.ifort 2019-Sep-19 06:10:59 2019-Sep-19 06:11
1962-Apr-18 13:26 00:01 Jupiter 1.53985525721072 1.53984945500211 1.53986105942091 11.1655409581427 11.1161671562854 2437773.059975967 1.01771046214016 299.788763059447 34.0590411025262 14.8464882096625 1237454.41777334 T 42 CATAB v2.0f-lin.ifort 2019-Sep-19 06:10:59 2019-Sep-19 06:11
1974-Mar-08 00:04 00:01 Jupiter 1.67770267206417 1.67769657503408 1.67770876909445 10.9136034726165 10.8672443536644 2442114.502689035 1.32829661410563 305.979018533679 52.3109885742651 -5.9466445198012 908965.229192658 T 42 CATAB v2.0f-lin.ifort 2019-Sep-19 06:10:59 2019-Sep-19 06:11
1986-Jan-20 15:45 00:02 Jupiter 1.87087227952325 1.87086610755689 1.87087845149227 10.8352104363446 10.7933452246104 2446451.156074746 1.63712416542902 329.199801966121 94.9459679799231 -21.6984086224417 1086894.29403439 T 42 CATAB v2.0f-lin.ifort 2019-Sep-19 06:10:59 2019-Sep-19 06:11
2028-Feb-29 08:58 < 00:01 Earth 0.469138434081139 0.469137284480591 0.469139583689954 44.2018394084424 44.2017109177611 2461830.873440703 0.809977051599101 626.453246534536 56.612185962235 89.1717704691295 1204333.49901299 T 42 CATAB v2.0f-lin.ifort 2019-Sep-19 06:10:59 2019-Sep-19 06:11
2089-Feb-12 05:27 00:03 Earth 0.48140637330105 0.481401041683322 0.481411707637496 43.9563636628356 43.9562377472802 2484094.727379955 2.70293836843027 1872.03362489391 60.7641770662935 82.0464006482719 1140722.41373105 T 42 CATAB v2.0f-lin.ifort 2019-Sep-19 06:10:59 2019-Sep-19 06:11
2093-Mar-06 16:11 00:03 Earth 0.474003793427382 0.473999599150786 0.474007990899052 44.5893264418982 44.5892003752397 2485578.173978368 2.67495810103919 2048.6072114232 63.8774210517612 -84.4160274672183 1080628.16204043 T 42 CATAB v2.0f-lin.ifort 2019-Sep-19 06:10:59 2019-Sep-19 06:11
2104-Apr-10 16:11 00:02 Jupiter 1.66141508252023 1.66140962831837 1.66142053672314 14.5296393553139 14.4945086133274 2489630.174531995 1.74519542187828 281.894525330963 120.717727476682 -17.3788759327059 743910.397804269 T 42 CATAB v2.0f-lin.ifort 2019-Sep-19 06:10:59 2019-Sep-19 06:11
2116-Apr-08 07:42 00:02 Jupiter 1.4477687154262 1.44776432590203 1.44777310495128 13.40592421088 13.3622115103844 2494010.820943619 1.65285126191044 231.227739371815 131.549795110241 -23.6049596168726 784916.27983426 T 42 CATAB v2.0f-lin.ifort 2019-Sep-19 06:10:59 2019-Sep-19 06:11
2128-Mar-22 20:23 00:02 Jupiter 1.36090242040384 1.36089886908186 1.36090597172581 12.658756583974 12.6094933634362 2498377.348976238 1.61353601782106 178.182705944487 150.284448228887 -14.2916015724941 849752.600566167 T 42 CATAB v2.0f-lin.ifort 2019-Sep-19 06:10:59 2019-Sep-19 06:11
2140-Feb-24 12:30 00:02 Jupiter 1.35947749483762 1.35947411423603 1.3594808754403 12.1311344809943 12.0796657115916 2502733.020757840 1.67162506913818 191.254777800119 123.603860880362 38.5570128573502 979762.753176637 T 42 CATAB v2.0f-lin.ifort 2019-Sep-19 06:10:59 2019-Sep-19 06:11
2152-Jan-22 23:50 00:02 Jupiter 1.41054384467785 1.41053974560193 1.41054794375754 11.7404705000209 11.6892112827218 2507083.493355213 1.79954931196091 238.628546664497 73.0503381306102 32.9002877947083 1250891.41622323 T 42 CATAB v2.0f-lin.ifort 2019-Sep-19 06:10:59 2019-Sep-19 06:11
2163-Dec-19 19:02 00:02 Jupiter 1.50311844115248 1.5031125768945 1.50312430541235 11.4383698964246 11.3889984442907 2511432.292911530 1.93744051236609 304.337480948094 30.4893595439505 16.1818312339923 1803631.72131548 T 42 CATAB v2.0f-lin.ifort 2019-Sep-19 06:10:59 2019-Sep-19 06:11
2175-Nov-13 11:57 00:02 Jupiter 1.64353756044924 1.64352879078237 1.64354633011825 11.2349432912167 11.1889776032712 2515778.997676329 1.97108837900823 448.04968641433 108.912172901289 -13.0297255840981 690363.111981558 T 42 CATAB v2.0f-lin.ifort 2019-Sep-19 06:10:59 2019-Sep-19 06:11
2187-Oct-04 06:31 00:02 Jupiter 1.8452401632734 1.84522779554139 1.84525253104557 11.2021390302009 11.1610867198025 2520121.771343027 1.80382336770861 760.962739408574 159.987453626186 -36.8877838583038 965501.16995861 T 42 CATAB v2.0f-lin.ifort 2019-Sep-19 06:10:59 2019-Sep-19 06:11
2189-Jun-06 21:08 00:05 Venus 0.125788317890973 0.125780316112138 0.12579645760407 43.2214934213075 43.2210940003266 2520733.380720451 5.26079098201835 6651.35190301789 58.5770827020596 86.5679069778859 318538.036065715 T 42 CATAB v2.0f-lin.ifort 2019-Sep-19 06:10:59 2019-Sep-19 06:11
Ephemeris | Orbit Diagram | Orbital Elements | Mission Design | Physical Parameters | Discovery Circumstances | Close-Approach Data ]
ABOUT SSD CREDITS/AWARDS PRIVACY/COPYRIGHT GLOSSARY LINKS
FirstGov 2019-Dec-15 08:23 UT
(server date/time)  
NASA Home Page
Site Manager:   Ryan S. Park
Webmaster  Alan B. Chamberlin